Ana Sayfa
METAR-TAF:

METAR-TAF

Havaalanları :

Tri-County Airport

Ahoskie, Kuzey Carolina, Amerika Birleşik Devletleri

Enlem: 36-17-51N, Boylam: 077-10-15W, yükseklik: 21 m

Güncel hava durumu gözlemi

Rapor saat 23:55 UTC de 11 dakika önce yapıldı.
Rüzgar batı/kuzeybatıdan 6 kt
Sıcaklık 6°C
Nem 45%
Basınç 1017 hPa
Görüş mesafesi: 16.1 km
Açık gökyüzü

METAR: KASJ 192355Z AUTO 30006KT 10SM CLR 06/M05 A3002 RMK AO2 T00611054 10123 20061

Saat: 19:06 (00:06 UTC)


TAF: eksik

4.000'den fazla havaalanı için hava durumu gözlemleri ve tahminleri (METAR ve TAF raporları).

Kullanılabilir istasyonlar harita üzerinde sarı ve kırmızı noktalarla gösterilir.

İstasyonun adını görmek için fareyi noktanın üzerinde gezdirin.

Sonrasında hava gözlem ve tahminlerini görmek için tıklayın.

Haritayı değiştirmek için: yaklaştırmak için siyah artı işaretli yeşil düğmeye ve uzaklaştırmak için de eksi işaretli düğmeye hızla tıklayın; bitişik haritalar için yeşil okları kullanın.


METAR-TAF: